Location: Gro�bocka
(50.8204°N, 11.9702°E)
Time: 01:26:45
(UTC+00:00)

CZ-4C R/B - Pass Details

Date: 29 October 2020
Orbit: 624 x 1378 km, 63.4° (Epoch: 23 November)

Event Time Altitude Azimuth Distance (km) Brightness Sun altitude
Rises 20:28:03 0° 314° (NW) 3,834 6.4 -42.5°
Reaches altitude 10° 20:30:39 10° 308° (NW) 2,981 5.6 -42.8°
Enters shadow 20:34:49 33° 283° (WNW) 1,883 4.2 -43.3°
